EHI
0 0 0 0 0 0 0 0 0 0 0 0 0 0 0 0 0 0 0 0 0 0 0 0 0 0 0 0 0 0 0 0 0 0 0 0 0 0 0 0 0 0 0 0
0 0 0 0 0 0 0 0 0 0 0 0 0 0 0 0 0 0 0 0 0 0 0 0 0 0 0 0 0 0 0 0 0 0 0 0 0 0 0 0 0 0 0 0
0 0 0 0 0 0 0 0 0 0 0 0 0 0 0 0 0 0 0 0 0 0 0 0 0 0 0 0 0 0 0 0 0 0 0 0 0 0 0 0 0 0 0 0
0 0 0 0 0 0 0 0 0 0 0 0 0 0 0 0 0 0 0 0 0 1 1 0 0 0 0 0 0 0 0 0 0 0 0 0 0 0 0 0 0 0 0 0
0 0 0 0 0 0 0 0 0 0 0 0 0 0 0 0 0 0 0 0 1 2 2 1 0 0 0 0 0 0 0 0 0 0 0 0 0 0 0 0 0 0 0 0
0 0 0 0 0 0 0 0 0 0 0 0 0 0 0 0 0 0 0 1 2 3 2 1 0 0 0 0 0 0 0 0 0 0 0 0 0 0 0 0 0 0 0 0
0 0 0 0 0 0 0 0 0 0 0 0 0 0 0 0 0 0 0 1 2 3 2 1 0 0 0 0 0 0 0 0 0 0 0 0 0 0 0 0 0 0 0 0
0 0 0 0 0 0 0 0 0 0 0 0 0 0 0 0 0 0 0 1 2 3 2 0 0 0 0 0 0 0 0 0 0 0 0 0 0 0 0 0 0 0 0 0
0 0 0 0 0 0 0 0 0 0 0 0 0 0 0 0 0 0 0 1 2 3 2 0 0 0 0 0 0 0 0 0 0 0 0 0 0 0 0 0 0 0 0 0
0 0 0 0 0 0 0 0 0 0 0 0 0 0 0 0 0 0 0 0 1 2 1 0 0 0 0 0 0 0 0 0 0 0 0 0 0 0 0 0 0 0 0 0
0 0 0 0 0 0 0 0 0 0 0 0 0 0 0 0 0 0 0 0 0 0 0 0 0 0 0 0 0 0 0 0 0 0 0 0 0 0 0 0 0 0 0 0
0 0 0 0 0 0 0 0 0 0 0 0 0 0 0 0 0 0 0 0 0 0 0 0 0 0 0 0 0 0 0 0 0 0 0 0 0 0 0 0 0 0 0 0
0 0 0 0 0 0 0 0 0 0 0 0 0 0 0 0 0 0 0 0 0 0 0 0 0 0 0 0 0 0 0 0 0 0 0 0 0 0 0 0 0 0 0 0
0 0 0 0 0 0 0 0 0 0 0 0 0 0 0 0 0 0 0 0 0 0 0 0 0 0 0 0 0 0 0 0 0 0 0 0 0 0 0 0 0 0 0 0
0 0 0 0 0 0 0 0 0 0 0 0 0 0 0 0 0 0 0 0 0 0 0 0 0 0 0 0 0 0 0 0 0 0 0 0 0 0 0 0 0 0 0 0
0 0 0 0 0 0 0 0 0 0 0 0 0 0 0 0 0 0 0 0 0 0 0 0 0 0 0 0 0 0 0 0 0 0 0 0 0 0 0 0 0 0 0 0
0 0 0 0 0 0 0 0 0 0 0 0 0 0 0 0 0 0 0 0 0 0 0 0 0 0 0 0 0 0 0 0 0 0 0 0 0 0 0 0 0 0 0 0
0 0 0 0 0 0 0 0 0 0 0 0 0 0 0 0 0 0 0 0 0 0 0 0 0 0 0 0 0 0 0 0 0 0 0 0 0 0 0 0 0 0 0 0
0 0 0 0 0 0 0 0 0 0 0 0 0 0 0 0 0 0 0 0 0 0 0 0 0 0 0 0 0 0 0 0 0 0 0 0 0 0 0 0 0 0 0 0
0 0 0 0 0 0 0 0 0 0 0 0 0 0 0 0 0 0 0 0 0 0 0 0 0 0 0 0 0 0 0 0 0 0 0 0 0 0 0 0 0 0 0 0
0 0 0 0 0 0 0 0 0 0 0 0 0 0 0 0 0 0 0 0 0 0 0 0 0 0 0 0 0 0 0 0 0 0 0 0 0 0 0 0 0 0 0 0
0 0 0 0 0 0 0 0 0 0 0 0 0 0 0 0 0 0 0 0 0 0 0 0 0 0 0 0 0 0 0 0 0 0 0 0 0 0 0 0 0 0 0 0
0 0 0 0 0 0 0 0 0 0 0 0 0 0 0 0 0 0 0 0 0 0 0 0 0 0 0 0 0 0 0 0 0 0 0 0 0 0 0 0 0 0 0 0
0 0 0 0 0 0 0 0 0 0 0 0 0 0 0 0 0 0 0 0 0 0 0 0 0 0 0 0 0 0 0 0 0 0 0 0 0 0 0 0 0 0 0 0
0 0 0 0 0 0 0 0 0 0 0 0 0 0 0 0 0 0 0 0 0 0 0 0 0 0 0 0 0 0 0 0 0 0 0 0 0 0 0 0 0 0 0 0
0 0 0 0 0 0 0 0 0 0 0 0 0 0 0 0 0 0 0 0 0 0 0 0 0 0 0 0 0 0 0 0 0 0 0 0 0 0 0 0 0 0 0 0
0 0 0 0 0 0 0 0 0 0 0 0 0 0 0 0 0 0 0 0 0 0 0 0 0 0 0 0 0 0 0 0 0 0 0 0 0 0 0 0 0 0 0 0
Wind_Speed
4 4 3 4 4 6 6 8 7 7 7 9 9 9 9 9 10 11 11 11 11 10 8 7 7 6 6 6 5 6 6 5 4 3 3 3 3 3 3 3 3 2 3 3
2 3 3 4 5 6 7 7 7 5 6 7 6 5 7 9 11 12 12 12 12 11 10 9 9 8 7 7 6 6 6 5 4 4 3 3 3 3 3 3 2 3 3 3
3 3 1 4 8 8 6 6 7 8 9 5 6 9 11 12 12 12 12 11 12 12 11 10 10 9 9 8 7 6 6 5 4 4 4 3 3 3 3 2 2 2 2 2
2 1 3 8 4 6 6 4 5 5 6 8 10 9 8 9 11 11 11 11 11 10 9 9 8 8 8 7 7 7 6 5 4 4 4 3 3 3 2 2 2 1 1 1
3 2 5 6 3 3 4 3 3 5 4 5 6 6 1 3 7 10 11 10 9 9 9 9 9 9 9 7 7 6 6 5 5 5 5 4 4 3 2 2 1 1 1 1
3 3 5 7 5 2 4 2 4 5 6 7 9 5 5 5 5 6 7 8 8 8 8 8 8 9 9 8 7 7 6 6 5 5 5 5 4 3 2 2 2 1 1 1
4 4 7 7 4 3 4 7 4 6 8 9 7 7 6 7 6 6 7 7 8 9 8 8 8 9 8 7 7 6 6 5 5 5 5 4 3 3 3 3 2 2 2 1
4 4 8 5 3 5 7 3 3 4 6 7 6 5 7 8 8 8 8 7 8 8 7 6 8 9 8 7 6 5 6 5 5 4 4 4 4 3 3 3 3 2 1 1
8 7 6 3 4 4 4 4 3 4 5 7 7 7 8 8 8 8 8 8 8 8 7 5 6 8 8 6 6 6 6 5 4 4 3 3 4 3 2 2 2 1 1 0
2 3 3 2 1 1 3 4 4 5 6 8 8 8 8 8 7 7 7 7 7 9 8 6 5 5 6 6 7 8 7 5 4 4 3 3 2 3 3 2 2 1 1 1
2 3 1 2 1 3 3 5 5 5 5 7 9 9 8 8 8 7 6 6 7 8 8 7 6 6 6 7 8 7 6 5 4 4 4 3 2 1 2 2 3 3 3 2
6 7 5 5 4 4 6 5 6 7 5 5 7 8 7 7 7 7 7 6 7 7 7 6 7 6 6 6 8 8 6 5 4 3 3 3 3 2 2 1 0 2 2 2
6 5 5 4 3 4 5 5 5 7 7 6 5 7 8 6 6 6 7 7 8 8 7 7 7 6 6 6 7 7 6 5 4 4 3 3 3 3 1 2 3 2 2 2
4 5 3 3 4 4 5 5 5 5 5 6 6 6 7 6 6 7 7 7 7 7 7 7 7 6 6 6 7 6 5 6 5 4 4 3 3 2 2 2 0 2 3 3
3 4 6 5 5 5 6 7 7 5 5 5 5 6 7 7 7 6 5 5 6 6 6 7 7 5 5 6 7 6 5 4 3 3 3 3 3 2 2 2 1 1 2 3
2 4 6 7 7 6 6 7 7 6 6 5 5 6 7 7 6 5 6 7 8 7 6 7 6 6 6 6 6 5 4 6 5 4 3 2 2 2 2 2 1 1 2 2
6 5 5 6 6 5 6 6 6 6 6 6 7 6 7 7 6 5 5 5 6 6 6 6 6 5 6 7 6 4 4 4 6 4 3 3 2 2 2 2 2 2 2 3
7 8 8 9 8 6 5 5 5 6 6 6 7 7 7 8 8 7 5 5 5 4 4 5 5 5 5 6 5 4 4 4 3 3 3 2 2 2 2 2 2 2 2 2
4 5 6 6 6 7 6 6 5 5 6 6 7 7 7 7 7 7 6 7 7 6 4 4 8 6 5 5 6 4 4 4 3 2 2 2 2 1 1 1 2 2 2 2
3 5 5 5 5 6 6 5 5 5 6 7 7 6 6 6 6 7 7 6 5 5 5 6 6 5 4 5 6 4 4 4 4 3 2 2 2 2 2 2 2 2 2 2
4 4 5 5 4 4 5 6 6 6 6 7 8 8 7 6 7 7 7 4 3 4 6 8 5 4 4 4 5 3 3 3 3 3 2 2 2 2 2 2 2 2 2 2
3 4 4 4 4 3 3 5 6 7 6 6 6 6 7 6 6 5 5 5 5 8 6 4 4 5 5 5 3 3 3 3 3 2 2 2 2 2 2 2 2 2 2 2
3 3 3 4 4 4 3 4 5 6 7 7 7 8 7 6 6 6 4 3 5 8 6 4 5 7 7 4 3 3 3 3 2 2 2 2 2 2 2 2 2 2 2 2
3 3 3 3 4 5 4 3 4 4 5 6 6 7 7 5 3 3 4 8 9 9 5 6 8 8 7 3 3 3 3 2 2 2 2 1 1 1 1 1 1 1 2 2
3 3 3 4 4 4 4 4 4 4 4 3 4 4 4 5 5 4 5 6 9 8 5 6 9 8 4 3 3 3 2 2 2 2 2 1 1 1 1 1 2 2 2 2
2 2 2 3 3 3 4 4 4 4 4 4 3 3 3 3 5 5 5 6 7 8 5 4 4 5 3 3 3 3 2 2 2 1 2 1 1 1 1 1 2 2 2 3
2 2 1 1 1 3 3 4 4 4 5 5 4 3 4 5 5 5 6 5 5 5 4 4 3 3 3 3 3 2 2 2 1 1 1 1 1 1 1 2 2 2 2 3
Wind_Direction
225 231 189 205 208 190 186 188 188 219 211 219 206 187 175 167 162 161 164 167 170 172 173 169 165 164 161 155 150 142 134 133 144 143 130 120 113 104 92 87 87 83 74 56
277 265 235 245 237 210 209 203 206 212 236 229 194 161 159 165 165 168 174 177 177 176 173 172 172 168 162 160 156 145 143 148 148 138 127 125 125 113 97 88 80 78 73 72
258 291 3 269 237 216 207 200 188 208 227 189 161 175 179 176 174 176 178 178 178 179 176 176 175 167 166 165 155 148 150 151 151 148 141 142 133 114 109 106 90 80 73 81
186 42 238 248 251 201 190 217 207 202 195 178 179 182 177 172 172 175 176 174 174 172 171 172 167 161 159 153 151 152 155 160 159 152 149 140 126 126 129 115 111 106 92 99
142 193 270 286 273 183 167 243 219 187 180 159 138 97 74 196 178 177 176 172 170 168 162 158 160 160 152 152 153 155 165 173 169 159 151 143 145 158 159 130 116 117 121 119
142 173 230 249 261 210 115 257 253 179 163 148 131 140 220 202 172 164 158 156 154 148 141 149 157 151 147 155 158 169 176 174 166 157 153 158 166 164 147 136 140 123 92 103
167 209 254 254 260 98 147 229 226 176 162 157 165 184 181 159 149 146 146 146 145 144 148 157 154 147 148 156 172 177 165 154 150 154 157 159 154 145 136 129 115 102 89 54
161 193 249 262 132 169 210 209 160 157 158 157 149 135 138 146 143 137 134 134 141 143 146 148 148 147 151 166 170 151 142 140 146 150 151 139 132 130 129 128 119 109 87 36
184 210 239 233 201 198 160 149 155 152 149 142 133 137 142 144 143 142 141 143 142 142 139 142 150 153 159 169 152 139 133 135 138 133 124 127 134 136 122 122 132 144 138 175
198 259 262 258 169 142 146 146 145 142 141 139 140 144 143 143 142 142 142 147 143 142 144 151 156 152 154 151 143 136 137 139 135 130 124 118 124 134 137 151 156 162 173 203
205 251 317 310 213 163 124 116 113 117 131 145 140 141 145 147 150 150 147 148 148 154 158 161 155 147 148 147 141 138 140 141 140 140 140 132 121 136 158 189 185 178 195 193
209 213 183 217 221 166 139 140 138 128 118 133 143 146 144 150 154 151 151 148 147 151 154 154 148 147 148 147 146 143 143 147 147 143 137 131 122 66 25 51 215 190 192 195
199 195 181 190 183 157 146 147 145 141 141 140 140 143 145 147 149 147 148 151 156 157 155 151 147 148 152 148 144 147 152 154 151 149 147 148 146 145 131 350 2 343 289 262
167 132 125 159 165 155 141 134 126 123 131 139 139 137 137 134 140 148 158 162 157 149 148 148 146 156 160 148 142 144 147 152 152 158 159 159 162 166 167 170 269 312 310 297
169 155 164 158 139 131 129 124 119 123 127 128 136 141 143 146 154 160 154 145 139 140 147 149 152 164 160 148 144 146 146 152 153 152 154 156 156 157 168 180 199 257 308 316
158 121 131 137 143 143 138 139 144 152 150 148 151 156 156 153 150 147 146 149 151 158 162 158 163 169 157 146 143 146 154 156 149 147 146 146 151 162 178 190 206 227 250 261
142 148 149 152 158 160 162 163 164 166 161 161 165 156 144 137 135 143 154 161 160 160 161 160 163 160 155 151 149 151 152 157 149 142 154 166 172 186 193 194 209 231 250 254
177 179 174 170 170 170 168 164 162 161 166 166 152 146 150 155 161 165 161 145 132 131 152 159 155 150 151 153 151 149 149 152 156 160 163 170 180 186 187 198 216 231 260 277
177 175 172 169 168 165 167 168 168 167 160 151 152 160 166 167 164 158 149 145 149 160 179 162 147 141 147 156 147 144 148 151 154 159 162 171 170 180 186 200 224 243 252 262
151 154 154 155 155 156 163 166 162 160 159 153 150 151 157 162 157 153 152 162 179 177 164 155 145 142 149 157 144 145 151 155 159 162 162 167 179 196 207 219 231 244 253 253
151 152 150 151 151 154 162 162 160 163 162 157 157 165 167 164 159 155 154 166 189 154 149 150 147 150 154 151 139 139 147 152 158 165 170 177 188 201 214 223 234 247 255 263
147 149 156 155 150 153 161 158 158 159 157 158 156 153 152 157 160 157 167 172 167 157 149 149 152 159 155 143 138 145 152 157 160 163 169 177 188 207 223 228 234 250 257 261
142 145 153 160 160 155 142 147 154 157 160 163 163 163 165 169 166 160 170 174 157 156 149 154 160 155 147 136 141 149 153 157 163 169 175 183 193 205 220 236 245 253 259 265
138 139 147 149 135 133 149 168 162 159 159 160 165 164 156 148 150 163 151 155 156 149 147 153 150 144 135 133 138 143 151 160 167 170 170 177 188 197 207 224 250 266 271 276
142 134 127 134 147 165 170 153 133 131 134 137 144 151 151 148 150 154 146 149 149 141 137 151 147 138 129 130 135 139 147 156 158 152 153 165 184 207 232 244 249 256 264 269
132 139 159 174 172 162 156 151 151 154 147 141 139 137 130 124 127 133 137 142 144 139 137 140 142 134 128 131 137 138 139 141 135 137 160 174 191 209 229 245 262 265 265 266
110 110 110 104 123 145 148 151 155 161 161 156 152 149 139 133 132 136 138 139 140 136 134 134 135 134 134 134 132 134 137 141 149 163 173 186 205 229 250 263 266 268 270 273